Home   Weather   Des Moines   Past weeks

Flag for USA Past Weather in Des Moines, Iowa, USA — Yesterday and Last 2 Weeks

Now
32 °F

Ice fog.


Feels Like: 22 °F
Forecast: 31 / 36 °F
Wind: 15 mph from Southeast

Location: Des Moines International Airport

Current Time: Jan 24, 2017 at 1:44:00 pm

Latest Report: Jan 24, 2017 at 12:54 pm


Visibility: 6 mi

Pressure: 29.75 "Hg

Humidity: 88%

Dew Point: 29 °F

Location of Des MoinesLocation

Past Weather in Des Moines — Graph

°F

Des Moines Temperature Yesterday

Maximum temperature yesterday: 35 °F (at 12:09 am)
Minimum temperature yesterday: 32 °F (at 3:54 am)
Average temperature yesterday: 34 °F

High & Low Weather Summary for the Past Weeks

 TemperatureHumidityPressure
High47 °F (Jan 18, 1:54 pm)100% (Jan 16, 10:54 pm)30.79 "Hg (Jan 16, 10:54 pm)
Low12 °F (Jan 13, 6:54 am)31% (Jan 14, 2:54 pm)29.31 "Hg (Jan 10, 7:20 am)
Average32 °F83%29.94 "Hg
* Reported Jan 9 12:54 pm — Jan 24 12:12 pm, Des Moines, Weather by CustomWeather, © 2017

Note: Actual official high and low records may vary slightly from our data, if they occured in-between our weather recording intervals... More about our weather records

Advertising

Des Moines Weather History for the Previous 24 Hours

Scroll right to see more
 ConditionsComfort  
Time TempWeatherWind HumidityBarometerVisibility
12:12 pm
Tue, Jan 24
32 °FIce fog.13 mph88%29.78 "Hg5 mi
11:54 am32 °FIce fog.12 mph88%29.83 "Hg4 mi
10:54 am32 °FIce fog.9 mph88%29.85 "Hg6 mi
9:54 am32 °FIce fog.9 mph88%29.86 "Hg6 mi
8:54 am32 °FIce fog.9 mph88%29.85 "Hg5 mi
7:54 am32 °FLow clouds.8 mph85%29.86 "Hg8 mi
6:54 am32 °FLow clouds.9 mph85%29.87 "Hg8 mi
5:54 am32 °FLow clouds.10 mph85%29.87 "Hg8 mi
4:54 am32 °FLow clouds.8 mph85%29.88 "Hg8 mi
4:03 am32 °FLow clouds.5 mph85%29.87 "Hg8 mi
2:54 am32 °FOvercast.5 mph82%29.90 "Hg10 mi
1:54 am33 °FOvercast.No wind78%29.88 "Hg10 mi
12:54 am33 °FOvercast.5 mph78%29.87 "Hg10 mi
11:54 pm
Mon, Jan 23
33 °FOvercast.3 mph82%29.89 "Hg10 mi
10:54 pm33 °FOvercast.No wind82%29.90 "Hg10 mi
9:54 pm33 °FOvercast.3 mph82%29.90 "Hg10 mi
8:54 pm34 °FOvercast.3 mph79%29.88 "Hg10 mi
7:54 pm34 °FOvercast.3 mph79%29.88 "Hg10 mi
7:31 pm34 °FOvercast.5 mph79%29.85 "Hg10 mi
6:54 pm34 °FOvercast.3 mph79%29.87 "Hg10 mi
5:54 pm34 °FOvercast.5 mph79%29.87 "Hg10 mi
5:41 pm35 °FOvercast.No wind75%29.85 "Hg10 mi
4:54 pm34 °FOvercast.3 mph79%29.88 "Hg10 mi
3:54 pm35 °FOvercast.6 mph75%29.86 "Hg10 mi
3:26 pm35 °FOvercast.5 mph75%29.84 "Hg10 mi
2:54 pm35 °FOvercast.5 mph75%29.86 "Hg10 mi
1:54 pm34 °FOvercast.5 mph82%29.87 "Hg10 mi
Weather by CustomWeather, © 2017

See weather overviewHow to use our weather pages